Location: Dillon
(41.1766°N, 107.0923°W)
Time: 07:55:53
(UTC+00:00)

SJ-7 - Visible Passes

Search period start: 07 December 2022 00:00
Search period end: 17 December 2022 00:00
Orbit: 548 x 596 km, 97.7° (Epoch: 06 December)

Date Brightness Start Highest point End Pass type
(mag) Time Alt. Az. Time Alt. Az. Time Alt. Az.
07 Dec 5.8 00:29:24 10° S 00:33:14 43° W 00:37:04 10° NNW visible
07 Dec 6.8 12:09:38 10° NE 12:12:51 23° E 12:16:04 10° SSE visible
07 Dec 5.3 13:44:41 10° NNW 13:47:58 25° WNW 13:51:14 10° SW visible
08 Dec 5.9 00:32:04 10° S 00:35:51 40° W 00:39:38 10° NNW visible
08 Dec 6.7 12:12:09 10° NE 12:15:28 25° E 12:18:47 10° SSE visible
08 Dec 5.4 13:47:21 10° NNW 13:50:33 24° WNW 13:53:45 10° WSW visible
09 Dec 6.1 00:34:44 10° SSW 00:38:29 37° W 00:42:12 10° NNW visible
09 Dec 6.5 12:14:41 10° NE 12:18:06 27° E 12:21:29 10° SSE visible
09 Dec 5.5 13:50:01 10° NNW 13:53:08 22° WNW 13:56:15 10° WSW visible
10 Dec 6.2 00:37:25 10° SSW 00:41:05 34° W 00:44:45 10° NNW visible
10 Dec 6.4 12:17:13 10° NE 12:20:42 29° E 12:24:11 10° SSE visible
11 Dec 6.4 00:40:04 10° SSW 00:43:41 32° W 00:47:17 10° NNW visible
11 Dec 6.3 12:19:45 10° NE 12:23:18 31° E 12:26:52 10° SSE visible
12 Dec 6.5 00:42:45 10° SSW 00:46:17 30° W 00:49:49 10° NW visible
12 Dec 6.1 12:22:16 10° NNE 12:25:54 33° E 12:29:32 10° SSE visible
13 Dec 6.6 00:45:26 10° SSW 00:48:52 28° W 00:52:20 10° NW visible
13 Dec 6.0 12:24:48 10° NNE 12:28:29 35° E 12:32:11 10° SSE visible
14 Dec 6.8 00:48:06 10° SSW 00:51:28 26° W 00:54:50 10° NW visible
14 Dec 5.9 12:27:19 10° NNE 12:31:04 38° E 12:34:49 10° SSE visible
15 Dec 6.9 00:50:46 10° SSW 00:54:03 24° W 00:57:20 10° NW visible
15 Dec 5.7 12:29:50 10° NNE 12:33:38 41° E 12:37:27 10° S visible
16 Dec 7.0 00:53:27 10° SSW 00:56:37 23° W 00:59:49 10° NW visible
16 Dec 5.6 12:32:21 10° NNE 12:36:12 44° E 12:40:04 10° S visible
